This is the latest recevied weather packets stored in our database for station/object EA6AMI-5. If no packets are shown the sender has not sent any weather packets the latest 10 day(s).
| Time | Temp. | Humidity | Pressure | Rain* | Wind** | Luminosity | Snow |
|---|---|---|---|---|---|---|---|
| 1787590443 | 28.89° C | 78% | 1012.7 hPa | 0 mm | - | 45 W/m² | - |
| 1787589903 | 29.44° C | 74% | 1012.6 hPa | 0 mm | - | 120 W/m² | - |
| 1787589363 | 28.89° C | 74% | 1012.5 hPa | 0 mm | - | 128 W/m² | - |
| 1787588823 | 29.44° C | 73% | 1012.7 hPa | 0 mm | - | 100 W/m² | - |
| 1787588284 | 29.44° C | 74% | 1012.5 hPa | 0 mm | - | 84 W/m² | - |
| 1787587743 | 29.44° C | 74% | 1013 hPa | 0 mm | - | 137 W/m² | - |
| 1787587204 | 29.44° C | 74% | 1013.1 hPa | 0 mm | - | 171 W/m² | - |
| 1787586843 | 29.44° C | 72% | 1013.1 hPa | 0 mm | - | 146 W/m² | - |
| 1787586303 | 29.44° C | 73% | 1013.3 hPa | 0 mm | - | 94 W/m² | - |
| 1787585763 | 28.89° C | 75% | 1012.9 hPa | 0 mm | - | 305 W/m² | - |
| 1787585223 | 28.89° C | 75% | 1012.9 hPa | 0 mm | - | 199 W/m² | - |
| 1787584683 | 28.89° C | 75% | 1012.6 hPa | 0 mm | - | 248 W/m² | - |
| 1787584143 | 28.89° C | 75% | 1012.7 hPa | 0 mm | - | 274 W/m² | - |
| 1787583603 | 28.89° C | 73% | 1013 hPa | 0 mm | - | 204 W/m² | - |
| 1787583243 | 29.44° C | 71% | 1012.7 hPa | 0 mm | - | 128 W/m² | - |
| 1787582703 | 29.44° C | 69% | 1013 hPa | 0 mm | - | 182 W/m² | - |
| 1787582164 | 29.44° C | 66% | 1013 hPa | 0 mm | - | 288 W/m² | - |
| 1787581623 | 29.44° C | 65% | 1013 hPa | 0 mm | - | 218 W/m² | - |
| 1787581083 | 28.89° C | 65% | 1012.8 hPa | 0 mm | - | 176 W/m² | - |
| 1787580544 | 28.33° C | 70% | 1012.8 hPa | 0 mm | - | 125 W/m² | - |
| 1787580004 | 28.33° C | 70% | 1012.7 hPa | 0 mm | - | 167 W/m² | - |
| 1787579643 | 27.78° C | 71% | 1012.5 hPa | 0 mm | - | 296 W/m² | - |
| 1787579104 | 27.78° C | 75% | 1012.7 hPa | 0 mm | - | 170 W/m² | - |
| 1787578564 | 27.78° C | 79% | 1012.4 hPa | 0 mm | - | 168 W/m² | - |
| 1787578023 | 27.78° C | 80% | 1012.3 hPa | 0 mm | - | 186 W/m² | - |
* Rain latest hour (hover to see other rain measurements)
** Current wind speed in m/s (hover to see current wind gust speed)